User: anonymous   Login
Location: Angwan Shehu
(11.2514°N, 7.4613°E)
Time: 15:50:29
(UTC+00:00)
Language:

S-56A Canister/Altair - Orbit

View from above orbital plane
View from above orbital plane
View from above satellite
View from above satellite

Ground track
Ground track

The orbit data is extracted from the following two-line orbital elements,

1 00082U 61004B   21100.62093725 -.00000109  00000-0 -36575-4 0  9991
2 00082  38.8541 178.0118 1175521  77.8098 295.1528 12.26040974844281
Epoch (UTC): 10 April 2021 14:54:08
Eccentricity: 0.1175521
inclination: 38.8541°
perigee height: 632 km
apogee height: 2500 km
right ascension of ascending node: 178.0118°
argument of perigee: 77.8098°
revolutions per day: 12.26040974
mean anomaly at epoch: 295.1528°
orbit number at epoch: 84428

The dashed part of the orbit path shows where the satellite is in the earth's shadow,  

DLR